Location: Adrasan
(36.3319°N, 30.4314°E)
Time: 13:08:27
(UTC+00:00)

USA 234 - Pass Details

Date: 09 December 2023
Orbit: 1099 x 1109 km, 123.0° (Epoch: 13 February)

Event Time Altitude Azimuth Distance (km) Brightness Sun altitude
Exits shadow 16:26:59 21° 32° (NNE) 2,259 4.5 -20.3°
Maximum altitude 16:31:26 59° 320° (NW) 1,267 3.6 -21.2°
Drops below altitude 10° 16:37:50 10° 243° (WSW) 2,963 6.6 -22.5°
Sets 16:40:20 0° 240° (WSW) 3,919 7.4 -22.9°
